Weather Roundup
Issued by NWS Chicago, IL

Home | Current Version | Previous Version | Graphics & Text | Print | Product List | Glossary On
Versions: 1 2 3 4 5 6 7 8 9 10 11 12 13 14 15 16 17 18 19 20 21 22 23 24 25 26 27 28 29 30 31 32 33 34 35 36 37 38 39 40 41 42 43 44 45 46 47 48 49 50
000
NZUS59 KLOT 061303
HRRLOT

CHICAGO AREA WEATHER ROUNDUP
NATIONAL WEATHER SERVICE CHICAGO/ROMEOVILLE IL
700 AM CST SAT FEB 06 2016

NOTE: "FAIR" INDICATES FEW OR NO CLOUDS BELOW 12,000 FEET WITH NO
SIGNIFICANT WEATHER AND/OR OBSTRUCTIONS TO VISIBILITY.

* THESE STATIONS ARE NOT UNDER NWS QUALITY CONTROL. THEY ALSO MAY NOT
  REPORT WEATHER SUCH AS PRECIPITATION OR FOG.

ILZ005-006-012>014-019>023-061400-
NORTHEAST ILLINOIS

CITY           SKY/WX    TMP DP  RH WIND       PRES   REMARKS
OHARE          PTCLDY    25  21  85 SW6       30.26S WCI  18
MIDWAY         PTCLDY    27  20  75 SW9       30.28S WCI  18
AURORA         CLEAR     24  21  88 S7        30.28S FOG     WCI  16
LANSING*       CLOUDY    25  22  89 S7        30.30S WCI  17
WAUKEGAN       CLEAR     24  21  88 SW9       30.24R WCI  14
DUPAGE AIRPORT CLEAR     23  19  85 SW8       30.26F WCI  14
WHEELING       CLEAR     25  21  85 SW5       30.28R WCI  19
MORRIS*        PTCLDY    23  21  91 S5        30.27F FOG     WCI  17
$$

WIZ051-052-058>065-066-070>072-061400-
SOUTHEAST WISCONSIN

CITY           SKY/WX    TMP DP  RH WIND       PRES   REMARKS
MILWAUKEE      MOCLDY    27  21  78 SW12      30.21S WCI  17
KENOSHA*       MOCLDY    25  21  85 SW8       30.23S WCI  16
RACINE*        MOCLDY    27  21  78 SW10      30.24S WCI  17
BURLINGTON     CLOUDY    24  21  87 SW6       30.22S WCI  17
WAUKESHA       CLOUDY    27  21  80 SW3       30.21S
$$

INZ001>003-010>013-019-020-061400-
NORTHWEST INDIANA

CITY           SKY/WX    TMP DP  RH WIND       PRES   REMARKS
GARY*          MOCLDY    27  23  86 SW8       30.31R WCI  18
MICHIGAN CITY* NOT AVBL
RENSSELAER*    NOT AVBL
VALPARAISO     CLOUDY    23  21  92 S6        30.30S WCI  16
$$

LMZ740>746-061400-
SOUTHERN LAKE MICHIGAN

STATION/POSITION TIME  SKY/WX   TEMP WIND        PRES    VSBY
                                AIR  DIR/SP/G
                 (UTC)          (F)  (DEG/KT/KT) (MB)    (MI)
HARRISON CRIB    1200            30  200/ 10/ 12   N/A
BURNHAM HARBOR   1300            27  200/  7/  9   N/A
CALUMET HARBOR   1200            26  200/  6/  8 1024.9R
BURNS HARBOR     1200            25  180/  6/  9 1026.4S
MICHIGAN CITY    1200            25  180/  7/  8   N/A
$$

ABBREVIATIONS USED IN REMARKS
   TC - TEMPERATURE IN CELSIUS
  WCI - WIND CHILL INDEX
   HX - HEAT INDEX
  VSB - VISIBILITY
$$



USA.gov is the U.S. government's official web portal to all federal, state and local government web resources and services.